Location: Bard
(39.9279°N, 78.6592°W)
Time: 09:20:12
(UTC+00:00)

ARIANE 6 FM1 Upper Stage - Pass Details

Date: 19 December 2025
Orbit: 522 x 610 km, 62.0° (Epoch: 14 January)

Event Time Altitude Azimuth Distance (km) Brightness Sun altitude
Exits shadow 09:49:25 19° 53° (NE) 1,296 4.9 -30.2°
Drops below altitude 10° 09:50:42 10° 47° (NE) 1,777 5.6 -29.9°
Sets 09:52:55 0° 42° (NE) 2,663 6.6 -29.5°
